Amateur Radio Satellites - All Passes

Search period start: 24 May 2013 06:19
Search period end: 25 May 2013 06:19
Location: Nebraska Star Party, 42.6000°N, 100.8833°W

Satellite Date Start Highest point End Downlink Frequencies (MHz)
Time Altitude Azimuth
Saudisat 1A 24 May 06:24:00 06:28:31 67° 121° (ESE) 06:33:07 436.775 MHz
Oscar 10/S400 24 May 06:35:09 09:51:43 57° 236° (WSW) 16:52:53 145.825 - 145.975 CW/USB, Beacon 145.810 USB
Sapphire 24 May 06:39:06 06:39:37 10° 101° (E) 06:40:08 437.095 MHz 1200 baud AX-25 AFSK
TMSAT-1 24 May 06:52:21 06:56:49 28° 295° (WNW) 07:01:16 436.925 FM
AO-7 24 May 06:55:52 07:04:17 78° 107° (ESE) 07:12:39 29.400 - 29.500 MHz
KITSAT 1 24 May 07:06:33 07:13:25 29° 38° (NE) 07:20:15 435.175 FM
Gurwin Techsat 1B 24 May 07:16:46 07:19:06 13° 302° (WNW) 07:21:27 435.225 FM
PCSat 24 May 07:44:02 07:49:08 44° 113° (ESE) 07:54:16 145.825 MHz
Hamsat 24 May 07:48:34 07:51:27 17° 92° (E) 07:54:20 145.90 MHz
STRAND 1 24 May 07:52:39 07:57:27 42° 261° (W) 08:02:18 ?
ISS 24 May 07:55:42 07:58:30 24° 17° (NNE) 08:01:18 145.800 FM
Saudisat 1A 24 May 08:05:20 08:08:41 20° 320° (NW) 08:12:03 436.775 MHz
SO-50 24 May 08:13:32 08:16:21 16° 109° (ESE) 08:19:10 436.795 FM
Sapphire 24 May 08:16:43 08:22:07 79° 118° (ESE) 08:27:33 437.095 MHz 1200 baud AX-25 AFSK
AO-7 24 May 08:49:42 08:56:16 27° 307° (NW) 09:02:49 29.400 - 29.500 MHz
KITSAT 1 24 May 09:01:37 09:09:47 84° 241° (WSW) 09:17:55 435.175 FM
SO-67 24 May 09:05:17 09:08:38 36° 98° (E) 09:11:58 435.3500 MHz FM
JAS-1B 24 May 09:22:26 09:28:22 58° 101° (E) 09:33:55 435.800 - 435.900 CW/SSB
Hamsat 24 May 09:23:35 09:27:45 45° 288° (WNW) 09:31:55 145.90 MHz
PCSat 24 May 09:27:58 09:32:43 30° 312° (NW) 09:37:29 145.825 MHz
ISS 24 May 09:32:09 09:35:31 81° 216° (SW) 09:38:53 145.800 FM
SO-50 24 May 09:51:42 09:56:29 67° 306° (NW) 10:01:12 436.795 FM
Sapphire 24 May 10:02:19 10:06:12 20° 318° (NW) 10:10:05 437.095 MHz 1200 baud AX-25 AFSK
JAS-2 24 May 10:16:18 10:20:54 19° 87° (E) 10:25:08 435.800 - 435.900 CW/SSB, 435.910 FM
SO-67 24 May 10:39:46 10:41:47 15° 294° (WNW) 10:43:48 435.3500 MHz FM
HO-68 24 May 10:56:17 11:03:15 52° 101° (E) 11:10:11 435.675 MHz FM
KITSAT 1 24 May 10:59:09 11:03:59 17° 260° (W) 11:08:48 435.175 FM
UOSAT-12 24 May 11:05:07 11:07:54 16° 110° (ESE) 11:10:42 437.025 FM, 437.400 FM
OPAL 24 May 11:08:29 11:11:28 16° 93° (E) 11:14:26 ?
ISS 24 May 11:11:33 11:11:43 10° 231° (SW) 11:11:52 145.800 FM
JAS-1B 24 May 11:14:12 11:18:31 21° 302° (WNW) 11:22:36 435.800 - 435.900 CW/SSB
Oscar 11 24 May 11:25:40 11:29:59 57° 100° (E) 11:34:17 145.825 FM, Beacon 2401.500 USB
SO-50 24 May 11:35:42 11:37:59 13° 326° (NW) 11:40:16 436.795 FM
JAS-2 24 May 11:59:54 12:06:47 71° 288° (WNW) 12:12:47 435.800 - 435.900 CW/SSB, 435.910 FM
MaSat-1 24 May 12:14:42 12:17:57 65° 246° (WSW) 12:20:38 437.345 MHz
UOSAT-12 24 May 12:43:09 12:47:36 59° 307° (NW) 12:52:07 437.025 FM, 437.400 FM
HO-68 24 May 12:44:26 12:50:39 33° 299° (WNW) 12:56:52 435.675 MHz FM
OPAL 24 May 12:45:51 12:50:48 62° 290° (WNW) 12:55:41 ?
Oscar 16 24 May 12:54:18 12:55:21 11° 56° (NE) 12:56:25 437.025 USB, Beacon 2401.1428
Oscar 11 24 May 13:03:18 13:05:45 15° 297° (WNW) 13:08:13 145.825 FM, Beacon 2401.500 USB
AO-27 24 May 13:07:47 13:08:33 10° 56° (NE) 13:09:19 436.795 MHz FM
Saudisat 1A 24 May 13:12:45 13:14:48 13° 34° (NNE) 13:16:49 436.775 MHz
ITAMSAT 1 24 May 13:13:01 13:14:40 12° 57° (ENE) 13:16:19 435.822 SSB
JAS-2 24 May 13:47:16 13:50:23 14° 309° (NW) 13:53:22 435.800 - 435.900 CW/SSB, 435.910 FM
Oscar 19 24 May 13:49:53 13:54:17 29° 66° (ENE) 13:58:42 437.125 CW, 437.150 USB
Uribyol 2 24 May 13:50:33 13:54:47 26° 65° (ENE) 13:59:02 436.500 FM
UOSAT-12 24 May 14:27:07 14:28:45 12° 328° (NNW) 14:30:23 437.025 FM, 437.400 FM
Oscar 16 24 May 14:28:38 14:33:48 75° 74° (ENE) 14:39:01 437.025 USB, Beacon 2401.1428
AO-27 24 May 14:42:00 14:47:09 73° 74° (ENE) 14:52:21 436.795 MHz FM
ITAMSAT 1 24 May 14:48:09 14:53:19 81° 74° (ENE) 14:58:32 435.822 SSB
Saudisat 1A 24 May 14:50:51 14:55:24 66° 54° (NE) 14:59:51 436.775 MHz
Uosat F 24 May 15:13:07 15:16:54 22° 63° (ENE) 15:20:42 435.120 FM
AO-Echo 24 May 15:17:39 15:22:19 51° 72° (ENE) 15:26:55 ?
Gurwin Techsat 1B 24 May 15:18:23 15:22:18 21° 63° (ENE) 15:26:13 435.225 FM
RS-15 24 May 15:21:50 15:29:50 21° 99° (E) 15:37:36 29.354 - 29.394 USB, Beacon 29.352 USB
Sapphire 24 May 15:22:04 15:25:09 15° 38° (NE) 15:28:13 437.095 MHz 1200 baud AX-25 AFSK
Oscar 19 24 May 15:28:42 15:33:30 37° 263° (W) 15:38:19 437.125 CW, 437.150 USB
Uribyol 2 24 May 15:29:10 15:34:03 41° 262° (W) 15:38:59 436.500 FM
AO-7 24 May 16:05:14 16:11:43 27° 53° (NE) 16:18:14 29.400 - 29.500 MHz
Oscar 16 24 May 16:11:09 16:13:44 14° 271° (W) 16:16:19 437.025 USB, Beacon 2401.1428
AO-27 24 May 16:24:36 16:27:14 14° 271° (W) 16:29:51 436.795 MHz FM
PCSat 24 May 16:31:09 16:36:20 43° 53° (NE) 16:41:29 145.825 MHz
ITAMSAT 1 24 May 16:31:23 16:33:28 12° 271° (W) 16:35:33 435.822 SSB
Saudisat 1A 24 May 16:32:08 16:34:32 14° 251° (WSW) 16:36:55 436.775 MHz
TMSAT-1 24 May 16:33:34 16:38:47 65° 73° (ENE) 16:44:03 436.925 FM
SO-50 24 May 16:43:29 16:46:55 20° 41° (NE) 16:50:18 436.795 FM
Uosat F 24 May 16:50:36 16:55:24 47° 260° (W) 17:00:14 435.120 FM
Gurwin Techsat 1B 24 May 16:56:42 17:01:53 54° 260° (W) 17:07:06 435.225 FM
AO-Echo 24 May 16:58:13 17:01:24 17° 268° (W) 17:04:34 ?
Sapphire 24 May 17:04:07 17:09:34 73° 58° (ENE) 17:14:59 437.095 MHz 1200 baud AX-25 AFSK
RS-15 24 May 17:28:28 17:40:32 82° 120° (ESE) 17:52:05 29.354 - 29.394 USB, Beacon 29.352 USB
AO-7 24 May 17:55:24 18:03:42 78° 253° (WSW) 18:12:05 29.400 - 29.500 MHz
PCSat 24 May 18:14:57 18:19:35 29° 251° (WSW) 18:24:11 145.825 MHz
TMSAT-1 24 May 18:15:56 18:19:11 16° 270° (W) 18:22:27 436.925 FM
JAS-1B 24 May 18:21:14 18:24:53 14° 53° (NE) 18:28:17 435.800 - 435.900 CW/SSB
SO-50 24 May 18:23:27 18:27:56 60° 240° (WSW) 18:32:20 436.795 FM
Hamsat 24 May 18:44:27 18:46:41 14° 63° (ENE) 18:48:57 145.90 MHz
Sapphire 24 May 18:49:08 18:52:21 16° 256° (WSW) 18:55:34 437.095 MHz 1200 baud AX-25 AFSK
UOSAT-12 24 May 19:32:40 19:36:15 22° 42° (NE) 19:39:49 437.025 FM, 437.400 FM
SO-67 24 May 19:42:51 19:45:09 17° 67° (ENE) 19:47:28 435.3500 MHz FM
RS-15 24 May 19:43:31 19:54:15 38° 326° (NW) 20:04:37 29.354 - 29.394 USB, Beacon 29.352 USB
AO-7 24 May 19:53:26 19:57:46 15° 272° (W) 20:02:08 29.400 - 29.500 MHz
STRAND 1 24 May 20:02:14 20:07:21 62° 102° (ESE) 20:12:27 ?
JAS-1B 24 May 20:05:23 20:14:15 61° 70° (ENE) 20:21:46 435.800 - 435.900 CW/SSB
Hamsat 24 May 20:18:10 20:22:18 55° 260° (W) 20:26:30 145.90 MHz
JAS-2 24 May 20:30:19 20:34:00 14° 51° (NE) 20:37:40 435.800 - 435.900 CW/SSB, 435.910 FM
UOSAT-12 24 May 21:12:15 21:16:46 57° 241° (WSW) 21:21:16 437.025 FM, 437.400 FM
SO-67 24 May 21:15:10 21:18:23 31° 263° (W) 21:21:37 435.3500 MHz FM
HO-68 24 May 21:25:37 21:32:12 42° 64° (ENE) 21:38:48 435.675 MHz FM
KITSAT 1 24 May 21:42:12 21:44:12 11° 97° (E) 21:46:12 435.175 FM
STRAND 1 24 May 21:42:39 21:46:04 18° 299° (WNW) 21:49:29 ?
JAS-1B 24 May 21:57:10 22:05:00 32° 265° (W) 22:11:54 435.800 - 435.900 CW/SSB
RS-15 24 May 22:02:33 22:11:11 23° 360° (N) 22:19:33 29.354 - 29.394 USB, Beacon 29.352 USB
JAS-2 24 May 22:09:55 22:17:32 61° 70° (ENE) 22:25:10 435.800 - 435.900 CW/SSB, 435.910 FM
Oscar 11 24 May 22:21:40 22:25:49 49° 72° (ENE) 22:30:01 145.825 FM, Beacon 2401.500 USB
OPAL 24 May 22:23:21 22:27:57 33° 65° (ENE) 22:32:32 ?
HO-68 24 May 23:13:19 23:19:53 39° 262° (W) 23:26:31 435.675 MHz FM
KITSAT 1 24 May 23:30:04 23:37:59 64° 115° (ESE) 23:45:58 435.175 FM
JAS-2 24 May 23:56:10 00:02:51 31° 268° (W) 00:09:36 435.800 - 435.900 CW/SSB, 435.910 FM
Oscar 11 24 May 23:59:48 00:02:20 15° 269° (W) 00:04:54 145.825 FM, Beacon 2401.500 USB
OPAL 25 May 00:02:11 00:06:48 32° 261° (W) 00:11:25 ?
RS-15 25 May 00:17:49 00:28:04 37° 34° (NE) 00:37:57 29.354 - 29.394 USB, Beacon 29.352 USB
MaSat-1 25 May 01:05:16 01:09:59 20° 104° (ESE) 01:14:11 437.345 MHz
KITSAT 1 25 May 01:26:38 01:33:54 35° 317° (NW) 01:41:14 435.175 FM
ISS 25 May 02:15:27 02:18:04 22° 134° (SE) 02:20:42 145.800 FM
RS-15 25 May 02:30:30 02:41:37 79° 241° (WSW) 02:52:27 29.354 - 29.394 USB, Beacon 29.352 USB
Oscar 16 25 May 02:40:26 02:44:40 25° 94° (E) 02:48:51 437.025 USB, Beacon 2401.1428
MaSat-1 25 May 02:44:50 02:51:49 77° 297° (WNW) 02:57:27 437.345 MHz
AO-27 25 May 02:55:01 02:59:17 25° 94° (E) 03:03:33 436.795 MHz FM
ITAMSAT 1 25 May 03:00:56 03:05:23 28° 95° (E) 03:09:48 435.822 SSB
AO-Echo 25 May 03:25:18 03:28:04 15° 91° (E) 03:30:51 ?
KITSAT 1 25 May 03:28:04 03:32:13 14° 345° (NNW) 03:36:22 435.175 FM
Oscar 19 25 May 03:39:12 03:44:23 75° 103° (ESE) 03:49:31 437.125 CW, 437.150 USB
Uribyol 2 25 May 03:40:52 03:46:06 68° 102° (ESE) 03:51:18 436.500 FM
ISS 25 May 03:51:21 03:54:35 49° 332° (NNW) 03:57:50 145.800 FM
Oscar 16 25 May 04:19:19 04:24:10 41° 291° (WNW) 04:28:58 437.025 USB, Beacon 2401.1428
MaSat-1 25 May 04:30:50 04:34:30 16° 312° (NW) 04:37:47 437.345 MHz
AO-27 25 May 04:34:03 04:38:58 42° 291° (WNW) 04:43:51 436.795 MHz FM
ITAMSAT 1 25 May 04:40:09 04:44:57 38° 292° (WNW) 04:49:45 435.822 SSB
RS-15 25 May 04:45:28 04:51:58 18° 262° (W) 04:58:26 29.354 - 29.394 USB, Beacon 29.352 USB
TMSAT-1 25 May 04:49:23 04:53:42 25° 94° (E) 04:57:59 436.925 FM
Uosat F 25 May 04:57:29 05:02:23 50° 100° (E) 05:07:16 435.120 FM
Saudisat 1A 25 May 05:00:44 05:03:20 15° 109° (ESE) 05:05:57 436.775 MHz
AO-Echo 25 May 05:02:33 05:07:14 59° 287° (WNW) 05:12:01 ?
Gurwin Techsat 1B 25 May 05:12:06 05:17:22 59° 101° (E) 05:22:36 435.225 FM
Oscar 19 25 May 05:20:12 05:23:06 15° 300° (WNW) 05:26:00 437.125 CW, 437.150 USB
Uribyol 2 25 May 05:21:43 05:25:02 17° 300° (WNW) 05:28:22 436.500 FM
KITSAT 1 25 May 05:27:29 05:31:49 15° 17° (NNE) 05:36:09 435.175 FM
ISS 25 May 05:29:25 05:31:52 19° 351° (N) 05:34:20 145.800 FM
STRAND 1 25 May 05:43:19 05:45:39 13° 58° (ENE) 05:48:00 ?
AO-7 25 May 05:56:33 06:04:03 35° 97° (E) 06:11:29 29.400 - 29.500 MHz

Developed and maintained by Chris Peat, Heavens-Above GmbH. Please read the updated FAQ before sending e-mail. Imprint. DLR
